FW4469 Weather Reports


Display with metric or nautical units.
time (UTC)temp
F
wind
direction
speed
MPH
gust
MPH
rain 1hr
in
rain 24hr
in
rain mn
in
humidity
%
barometer
mb
20260503013003 48 336 3.0 7.0 0.00 0.49 0.01 99 1009.5
20260503012222 48 331 3.0 9.0 0.00 0.49 0.01 99 1009.6
20260503011003 48 343 3.0 9.0 0.00 0.49 0.01 99 1009.7
20260503010217 48 335 4.0 10.0 0.01 0.49 0.01 99 1009.6
20260503005003 48 337 5.0 10.0 0.01 0.49 0.01 99 1009.7
20260503004004 48 342 5.0 9.0 0.01 0.49 0.01 98 1009.8
20260503003008 48 343 5.0 10.0 0.01 0.49 0.01 98 1010.1
20260503002217 48 342 4.0 11.0 0.01 0.48 0.01 98 1010.1
20260503001008 48 345 5.0 10.0 0.01 0.48 0.01 98 1010.1
20260503000218 48 348 5.0 10.0 0.00 0.48 0.00 98 1010.2
20260502235223 48 342 4.0 9.0 0.00 0.48 0.00 98 1010.2
20260502234217 48 342 4.0 11.0 0.00 0.48 0.00 98 1010.3
20260502233008 48 346 5.0 11.0 0.00 0.48 0.00 98 1010.4
20260502232008 48 348 5.0 12.0 0.00 0.48 0.00 98 1010.8
20260502231217 48 345 5.0 14.0 0.00 0.48 0.00 98 1010.6
20260502230223 48 346 4.0 10.0 0.01 0.48 0.00 98 1010.5
20260502225223 48 342 4.0 10.0 0.02 0.48 0.48 98 1010.6
20260502224008 48 340 5.0 12.0 0.03 0.48 0.48 98 1010.6
20260502223216 48 342 4.0 12.0 0.04 0.48 0.48 98 1010.8
20260502222008 48 335 4.0 13.0 0.05 0.47 0.47 98 1010.7
20260502221003 48 347 4.0 13.0 0.06 0.47 0.47 98 1010.9
20260502220008 48 344 4.0 11.0 0.08 0.47 0.47 98 1010.9
20260502215222 47 349 4.0 11.0 0.10 0.46 0.46 97 1011.1
20260502214008 47 339 4.0 12.0 0.10 0.45 0.45 97 1011.2
20260502213008 47 341 3.0 15.0 0.11 0.44 0.44 97 1011.2
20260502212008 47 316 4.0 11.0 0.14 0.43 0.43 96 1011.3
20260502211008 47 347 4.0 16.0 0.15 0.41 0.41 96 1011.3
20260502210222 47 288 3.0 8.0 0.16 0.39 0.39 96 1011.4
20260502205218 47 343 4.0 9.0 0.15 0.36 0.36 96 1011.6
20260502204008 48 343 5.0 16.0 0.17 0.35 0.35 96 1011.4
20260502203218 48 344 5.0 15.0 0.17 0.33 0.33 96 1011.3
20260502202008 48 332 3.0 10.0 0.14 0.29 0.29 95 1011.5
20260502201008 47 337 2.0 5.0 0.12 0.26 0.26 94 1011.5
20260502200008 48 336 3.0 5.0 0.09 0.22 0.22 94 1011.7
20260502195008 48 337 2.0 5.0 0.08 0.20 0.20 94 1011.8
20260502194221 47 335 3.0 6.0 0.07 0.19 0.19 93 1011.5
20260502193008 47 334 2.0 4.0 0.07 0.16 0.16 92 1011.6
20260502192008 48 335 2.0 5.0 0.06 0.15 0.15 92 1011.9
20260502191013 48 339 2.0 5.0 0.07 0.14 0.14 92 1011.8
20260502190008 48 337 2.0 4.0 0.08 0.13 0.13 91 1012.0
20260502185013 49 338 3.0 4.0 0.09 0.12 0.12 91 1012.5
20260502184008 49 326 3.0 4.0 0.09 0.11 0.11 90 1012.6
20260502183008 50 328 2.0 4.0 0.07 0.09 0.09 89 1012.7
20260502182003 51 324 2.0 4.0 0.07 0.09 0.09 86 1012.8
20260502181008 52 333 2.0 3.0 0.06 0.07 0.07 88 1012.8
20260502170222 55 334 3.0 4.0 0.01 0.01 0.01 83 1013.1
20260502164226 56 328 2.0 3.0 0.00 0.01 0.01 79 1013.3
20260502163008 56 329 2.0 4.0 0.00 0.00 0.00 75 1013.5
20260502162008 56 332 3.0 4.0 0.00 0.00 0.00 73 1013.4
20260502161008 57 325 3.0 4.0 0.00 0.01 0.00 73 1013.1
20260502152008 58 320 2.0 4.0 0.00 0.02 0.00 65 1013.9
20260502151008 58 317 2.0 5.0 0.00 0.03 0.00 61 1014.0
20260502150218 59 320 2.0 6.0 0.00 0.06 0.00 62 1014.3
20260502123008 59 326 4.0 9.0 0.00 0.10 0.00 65 1015.9
20260502122003 58 332 3.0 8.0 0.00 0.10 0.00 63 1015.9
20260502121003 57 334 3.0 6.0 0.00 0.10 0.00 62 1016.1
20260502115003 59 329 3.0 7.0 0.00 0.10 0.00 63 1016.4
20260502114008 58 328 3.0 9.0 0.00 0.10 0.00 63 1016.5
20260502113222 58 328 4.0 9.0 0.00 0.10 0.00 66 1016.4
20260502112003 56 334 4.0 10.0 0.00 0.10 0.00 71 1016.6
20260502111003 55 333 3.0 8.0 0.00 0.10 0.00 68 1016.9
20260502110008 55 334 3.0 8.0 0.00 0.10 0.00 71 1016.9
20260502105003 57 335 3.0 7.0 0.00 0.10 0.00 72 1016.9
20260502104222 57 324 4.0 8.0 0.00 0.10 0.00 70 1017.0
20260502103008 56 330 3.0 10.0 0.00 0.10 0.00 73 1017.2
20260502102218 55 327 4.0 8.0 0.00 0.10 0.00 77 1017.2
20260502101008 54 335 4.0 8.0 0.00 0.10 0.00 76 1016.8
20260502091008 51 337 3.0 7.0 0.00 0.10 0.00 93 1017.7
20260502071008 46 337 4.0 9.0 0.00 0.10 0.00 99 1017.7
20260502070223 45 330 3.0 9.0 0.00 0.10 0.00 99 1017.8
20260502065008 45 343 2.0 7.0 0.00 0.10 0.00 99 1017.9
20260502064008 44 332 2.0 8.0 0.00 0.10 0.00 99 1017.8
20260502063008 43 327 3.0 8.0 0.00 0.10 0.00 99 1017.8
20260502062003 44 325 3.0 11.0 0.00 0.10 0.00 99 1017.7
20260502061216 43 338 3.0 11.0 0.00 0.10 0.00 99 1017.7
20260502060003 43 341 4.0 8.0 0.00 0.10 0.00 99 1017.5
20260502055226 43 336 4.0 9.0 0.00 0.10 0.00 99 1017.6
20260502054008 42 346 4.0 9.0 0.00 0.10 0.00 99 1017.8
20260502053008 42 334 5.0 10.0 0.00 0.10 0.00 99 1017.6
20260502052003 42 314 3.0 10.0 0.00 0.10 0.00 99 1017.5
20260502051008 42 310 4.0 12.0 0.00 0.10 0.00 99 1017.5
20260502050008 42 319 4.0 9.0 0.00 0.10 0.00 99 1017.3
20260502045218 42 330 3.0 13.0 0.00 0.10 0.00 99 1017.4
20260502044003 42 339 5.0 11.0 0.00 0.10 0.00 99 1017.4
20260502043003 43 335 5.0 11.0 0.00 0.10 0.00 99 1017.7
20260502042008 43 330 5.0 11.0 0.00 0.10 0.00 99 1017.6
20260502041003 43 319 4.0 11.0 0.00 0.10 0.00 99 1017.6
20260502040008 43 327 5.0 11.0 0.00 0.10 0.00 99 1017.9
20260502035003 42 312 4.0 9.0 0.00 0.10 0.00 99 1017.8
20260502034003 42 337 6.0 14.0 0.00 0.10 0.00 99 1017.8
20260502033003 42 345 4.0 10.0 0.00 0.10 0.00 99 1017.7
20260502032008 43 316 5.0 12.0 0.00 0.10 0.00 99 1018.0
20260502031008 43 319 4.0 9.0 0.00 0.10 0.00 99 1017.8
20260502030008 44 328 3.0 6.0 0.00 0.10 0.00 99 1018.0
20260502025217 43 318 3.0 6.0 0.00 0.10 0.00 99 1018.1
20260502024008 43 336 3.0 6.0 0.00 0.10 0.00 99 1018.2
20260502023003 43 330 3.0 6.0 0.00 0.10 0.00 99 1018.0
20260502022008 43 319 3.0 5.0 0.00 0.10 0.00 99 1018.3
20260502021008 44 341 3.0 6.0 0.00 0.10 0.00 99 1018.3
20260502020008 44 337 3.0 5.0 0.00 0.10 0.00 99 1018.1
20260502015003 44 338 2.0 4.0 0.00 0.10 0.00 99 1018.4
20260502014008 44 328 3.0 6.0 0.00 0.10 0.00 99 1018.6